Regional Weather Roundup
Issued by NWS

Home | Current Version | Previous Version | Text Only | Print | Product List | Glossary Off
Versions: 1 2 3 4 5 6 7 8 9 10 11 12 13 14 15 16 17 18 19 20 21 22 23 24 25 26 27 28 29 30 31 32 33 34 35 36 37 38 39 40 41 42 43 44 45 46 47 48 49 50

000
ASUS43 KLOT 230703
RWRIL

ILLINOIS REGIONAL WEATHER ROUNDUP
NATIONAL WEATHER SERVICE CHICAGO/ROMEOVILLE IL
200 AM CDT WED AUG 23 2017

NOTE: "FAIR" INDICATES FEW OR NO CLOUDS BELOW 12,000 FEET WITH NO
SIGNIFICANT WEATHER AND/OR OBSTRUCTIONS TO VISIBILITY.

* THESE STATIONS ARE NOT UNDER NWS QUALITY CONTROL. THEY ALSO MAY NOT
  REPORT WEATHER SUCH AS PRECIPITATION OR FOG.

ILZ001-002-007-009-015-016-024-230800-
NORTHWEST ILLINOIS

CITY           SKY/WX    TMP DP  RH WIND       PRES   REMARKS
MOLINE         CLEAR     57  52  83 SW5       30.08S
SAVANNA*       CLEAR     58  53  85 NW3       30.07S
$$

ILZ003-004-008-010-011-017-018-230800-
NORTH CENTRAL ILLINOIS

CITY           SKY/WX    TMP DP  RH WIND       PRES   REMARKS
ROCKFORD       CLEAR     56  51  84 S3        30.05S
FREEPORT*      CLEAR     55  51  85 W7        30.07S
ROCHELLE*      CLEAR     51  50  95 W3        30.06S
DE KALB*       CLEAR     58  52  79 W8        30.04F
$$

ILZ005-006-012>014-019>023-230800-
NORTHEAST ILLINOIS

CITY           SKY/WX    TMP DP  RH WIND       PRES   REMARKS
CHICAGO-OHARE  CLEAR     63  50  62 W9        30.01S
CHICAGO-MIDWAY CLEAR     64  52  64 NW6       30.01F
AURORA         CLEAR     53  52  96 W5        30.04S
LANSING*       CLEAR     61  50  66 W5        30.01F
JOLIET*        CLEAR     60  54  79 CALM      30.03S
WAUKEGAN       CLEAR     60  52  74 W5        30.00S
DUPAGE AIRPORT CLEAR     58  52  80 W7        30.02S
WHEELING       CLEAR     62  53  72 NW5       30.02F
MORRIS*        CLEAR     53  51  94 W6        30.03S
NORTHERLY ISL    N/A     67  50  54 W8          N/A
$$

LMZ740>746-230800-
SOUTHERN LAKE MICHIGAN

STATION/POSITION SKY/WX   TEMP    WIND        PRES    VSBY  WAVE
                          AIR SEA DIR/SP/G                  HT/PER
                          (F)     (DEG/KT/KT) (MB)    (MI)  (FT/S)
SOUTHERN BUOY              70 71  320/ 17/ 19 1014.5          4/ 6
WILMETTE HARBOR            68 73  290/ 14/ 17   N/A           3/ 5
HARRISON CRIB              69     300/ 16/ 18   N/A
CALUMET HARBOR             66     270/  3/  5 1015.6F
BURNS HARBOR               71     310/ 16/ 19 1015.9F
MICHIGAN CITY              71     300/ 18/ 19   N/A
MICHIGAN CITY 6N           71 74  320/ 16/ 21   N/A           5/ 5
ST. JOSEPH                 71 73  330/ 17/ 21 1015.1F         5/ 6
$$

ILZ025>027-034>036-040-047-049-050-058-095>099-230800-
WEST-CENTRAL ILLINOIS

CITY           SKY/WX    TMP DP  RH WIND       PRES   REMARKS
QUINCY         CLEAR     58  53  84 NW5       30.10F
GALESBURG*     CLEAR     53  51  94 CALM      30.09F
MACOMB*        CLEAR     55  54  94 W6        30.11F
JACKSONVILLE*  CLEAR     56  55  93 W3        30.09S
$$

ILZ028>032-037-038-041>044-048-051>054-059>061-230800-
CENTRAL ILLINOIS

CITY           SKY/WX    TMP DP  RH WIND       PRES   REMARKS
BLOOMINGTON    CLEAR     59  53  80 NW7       30.07S
DECATUR        CLEAR     63  55  75 NW8       30.06F
PEORIA         CLEAR     59  54  83 NW5       30.07F
LACON*         CLEAR     54  54  99 CALM      30.06S
LINCOLN*       CLEAR     60  56  85 CALM      30.07S
SPRINGFIELD    CLEAR     58  56  93 W5        30.08S
TAYLORVILLE    NOT AVBL
$$

ILZ033-039-045-046-055>057-062-063-230800-
EAST-CENTRAL ILLINOIS

CITY           SKY/WX    TMP DP  RH WIND       PRES   REMARKS
CHAMPAIGN      CLEAR     58  55  90 NW5       30.05S
RANTOUL*       CLEAR     60  57  89 NW7       30.05S
MATTOON        CLEAR     60  58  92 NW7       30.04S
PARIS*         CLEAR     55  54  97 NW3       30.05S
$$

ILZ079-100>102-230800-
SOUTHWEST ILLINOIS

CITY           SKY/WX    TMP DP  RH WIND       PRES   REMARKS
ALTON          CLEAR     61  58  90 NW6       30.08F
BELLEVILLE     CLEAR     64  57  78 N5        30.08S
CAHOKIA*       CLEAR     67  57  70 N3        30.08S
SPARTA*        CLEAR     64  58  81 N3        30.08S
$$

ILZ064>066-069>071-074>076-080>082-084>086-088>090-092>094-230800-
SOUTH-CENTRAL ILLINOIS

CITY           SKY/WX    TMP DP  RH WIND       PRES   REMARKS
CARBONDALE     CLEAR     64  63  96 CALM      30.05F
CAIRO*         CLEAR     67  65  94 N3        30.03F
EFFINGHAM*     CLEAR     61  60  96 NW6       30.06F
MARION         MOCLDY    68  64  88 CALM      30.06S
MT. VERNON     FOG       58  57  97 NE3       30.05F VSB 1/2
CENTRALIA*     CLEAR     61  60  96 N5        30.05S
SALEM*         CLEAR     62  58  88 CALM      30.06S
METROPOLIS*    CLEAR     69  65  89 NW5       30.04S
$$

ILZ067-068-072-073-078-083-087-091-230800-
SOUTHEAST ILLINOIS

CITY           SKY/WX    TMP DP  RH WIND       PRES   REMARKS
LAWRENCEVILLE  CLEAR     62  60  93 NW7       30.03S
FLORA*         CLEAR     64  60  87 NW5       30.05S
FAIRFIELD*     CLEAR     65  60  83 CALM      30.04S
HARRISBURG*    PTCLDY    67  62  82 N3        30.04S
ROBINSON*      CLEAR     60  57  91 N3        30.04F
CARMI*         PTCLDY    63  61  94 NW5       30.03S
$$

ABBREVIATIONS USED IN REMARKS
   TC - TEMPERATURE IN CELSIUS
  WCI - WIND CHILL INDEX
   HX - HEAT INDEX
  VSB - VISIBILITY
$$





USA.gov is the U.S. government's official web portal to all federal, state and local government web resources and services.